Preston, Minnesota, United States (55965)
Lat: 43.67N, Lon: 92.08W
Wx Zone: MNZ095
Local Info
Past Weather Observations for Today

NOTE: This archive is for the closest National Weather Service station to Preston. Information may differ from the station used for current weather conditions.

Time Weather Temperature Dewpoint Humidity Pressure Winds Precip Visibility
10:13
Overcast
Fog And Mist
41°F / 5°C 39°F / 4°C 93% 29.71 in
(1006 mb)
SE 12.7 mph
(SE 20 kph)
- 4SM
09:53
Overcast
41°F / 5°C 39°F / 4°C 93% 29.74 in
(1007 mb)
SE 12.7 mph
(SE 20 kph)
- 7SM
09:33
Overcast
41°F / 5°C 37°F / 3°C 87% 29.74 in
(1007 mb)
SE 13.8 mph
(SE 22 kph)
- 7SM
09:12
Overcast
Light Rain
39°F / 4°C 37°F / 3°C 93% 29.74 in
(1007 mb)
SE 16.1 mph
(SE 26 kph)
- 4SM
08:53
Overcast
39°F / 4°C 37°F / 3°C 93% 29.74 in
(1007 mb)
SE 17.3 mph
(SE 28 kph)
0.06 in
(1.52 mm)
7SM
08:33
Overcast
Rain
39°F / 4°C 37°F / 3°C 93% 29.74 in
(1007 mb)
SE 15 mph
(SE 24 kph)
0.06 in
(1.52 mm)
3SM
08:12
Overcast
Light Rain
39°F / 4°C 37°F / 3°C 93% 29.77 in
(1008 mb)
SE 18.4 mph
(SE 30 kph)
0.01 in
(0.25 mm)
4SM
07:53
Overcast
Light Rain
39°F / 4°C 37°F / 3°C 93% 29.77 in
(1008 mb)
SE 17.3 mph
(SE 28 kph)
0.04 in
(1.02 mm)
3SM
07:33
Overcast
Light Rain
39°F / 4°C 37°F / 3°C 93% 29.8 in
(1009 mb)
SE 17.3 mph
(SE 28 kph)
0.02 in
(0.51 mm)
4SM
07:13
Overcast
Light Rain
41°F / 5°C 37°F / 3°C 87% 29.8 in
(1009 mb)
ESE 15 mph
(ESE 24 kph)
0.01 in
(0.25 mm)
4SM
06:53
Overcast
Light Rain
39°F / 4°C 39°F / 4°C 100% 29.8 in
(1009 mb)
E 16.1 mph
(E 26 kph)
0.27 in
(6.86 mm)
2SM
06:33
Overcast
Heavy Rain
39°F / 4°C 37°F / 3°C 93% 29.83 in
(1010 mb)
SE 9.2 mph
(SE 15 kph)
0.17 in
(4.32 mm)
1 1/2SM
06:13
Overcast
Rain
39°F / 4°C 37°F / 3°C 93% 29.83 in
(1010 mb)
SE 12.7 mph
(SE 20 kph)
0.06 in
(1.52 mm)
2SM
05:53
Overcast
Rain
39°F / 4°C 37°F / 3°C 93% 29.83 in
(1010 mb)
SE 12.7 mph
(SE 20 kph)
0.18 in
(4.57 mm)
2 1/2SM
05:33
Overcast
Rain
39°F / 4°C 37°F / 3°C 93% 29.83 in
(1010 mb)
SE 12.7 mph
(SE 20 kph)
0.09 in
(2.29 mm)
4SM
05:13
Overcast
Thunder Storms
39°F / 4°C 37°F / 3°C 93% 29.83 in
(1010 mb)
SE 10.4 mph
(SE 17 kph)
0.03 in
(0.76 mm)
5SM
04:53
Overcast
Rain
39°F / 4°C 37°F / 3°C 93% 29.83 in
(1010 mb)
SE 12.7 mph
(SE 20 kph)
0.17 in
(4.32 mm)
3SM
04:33
Overcast
39°F / 4°C 37°F / 3°C 93% 29.83 in
(1010 mb)
SE 15 mph
(SE 24 kph)
0.11 in
(2.79 mm)
3SM
04:13
Overcast
Rain
41°F / 5°C 37°F / 3°C 87% 29.83 in
(1010 mb)
SE 12.7 mph
(SE 20 kph)
0.04 in
(1.02 mm)
5SM
03:53
Overcast
Thunder Storms
41°F / 5°C 37°F / 3°C 87% 29.86 in
(1011 mb)
SE 11.5 mph
(SE 19 kph)
0.13 in
(3.30 mm)
5SM
03:33
Overcast
Rain
41°F / 5°C 37°F / 3°C 87% 29.86 in
(1011 mb)
SE 13.8 mph
(SE 22 kph)
0.08 in
(2.03 mm)
5SM
03:13
Overcast
Rain
41°F / 5°C 37°F / 3°C 87% 29.86 in
(1011 mb)
SE 11.5 mph
(SE 19 kph)
0.03 in
(0.76 mm)
5SM
02:52
Overcast
41°F / 5°C 37°F / 3°C 87% 29.86 in
(1011 mb)
SE 12.7 mph
(SE 20 kph)
- 7SM
02:33
Overcast
41°F / 5°C 37°F / 3°C 87% 29.89 in
(1012 mb)
SE 15 mph
(SE 24 kph)
- 10SM
02:13
Overcast
41°F / 5°C 37°F / 3°C 87% 29.89 in
(1012 mb)
SE 12.7 mph
(SE 20 kph)
- 7SM
01:53
Overcast
41°F / 5°C 37°F / 3°C 87% 29.89 in
(1012 mb)
SE 12.7 mph
(SE 20 kph)
0.01 in
(0.25 mm)
7SM
01:33
Overcast
Light Rain
41°F / 5°C 37°F / 3°C 87% 29.89 in
(1012 mb)
SE 15 mph
(SE 24 kph)
0.01 in
(0.25 mm)
7SM
01:13
Overcast
Light Rain
41°F / 5°C 37°F / 3°C 87% 29.92 in
(1013 mb)
ESE 13.8 mph
(ESE 22 kph)
- 7SM
00:53
Overcast
Light Rain
43°F / 6°C 37°F / 3°C 81% 29.92 in
(1013 mb)
SE 17.3 mph
(SE 28 kph)
0.01 in
(0.25 mm)
5SM
00:33
Overcast
Light Rain
43°F / 6°C 37°F / 3°C 81% 29.95 in
(1014 mb)
SE 15 mph
(SE 24 kph)
- 5SM
00:13
Overcast
43°F / 6°C 37°F / 3°C 81% 29.95 in
(1014 mb)
SE 13.8 mph
(SE 22 kph)
- 10SM
Time Weather Temperature Dewpoint Humidity Pressure Winds Precip Visibility


Weather for websites

WeatherForYou.com, LLC is not responsible for any damages or problems caused by this service. Current weather conditions are obtained from the closest station including government and personal stations which may have varying degrees of accuracy. Weather forecasts are derived from the NOAA NDFD. Like all things, this site belongs to Jesus Christ... He just trusts me to maintain it. If you have any questions or comments email webmaster@weatherforyou.com

Copyright © 2014, WeatherForYou.com LLC. All rights reserved.